SWR98P LSZH-LEMG

Flight info

Callsign SWR98P
Flight time N/A
Altitude 33000
Route VEBIT T50 ROTOS Z669 ULMES DCT VADAR DCT NINTU/N0453F350 DCT MEBAK DCT REPSI DCT LERGA DCT MINSO DCT NARAK DCT AGN DCT MAQAB DCT TIVLI DCT ELSAP DCT ZAR DCT EXEMU DCT PISUS DCT EDIMU DCT ADUXO DCT NUSGO DCT OBIBO DCT NASOS DCT ANZAN DCT BLN
Aircraft A321/M-SDE2E3FGIRWXY/L

Departure

Time 2026-05-08 07:46
Airport Zürich Airport (LSZH)

Arrival

Time N/A
Airport Málaga-Costa del Sol Airport (LEMG)
Time Latitude Longitude Altitude Speed Heading
2026-05-08 07:08 47.45349 8.55647 1407 ft 0 kts
2026-05-08 07:36 47.45343 8.55646 1413 ft 4 kts
2026-05-08 07:36 47.45321 8.55643 1410 ft 2 kts
2026-05-08 07:36 47.45295 8.55638 1410 ft 4 kts
2026-05-08 07:37 47.45273 8.55642 1412 ft 4 kts 304°
2026-05-08 07:37 47.45269 8.55672 1406 ft 4 kts 276°
2026-05-08 07:37 47.45268 8.55685 1406 ft 0 kts 276°
2026-05-08 07:40 47.45270 8.55659 1408 ft 4 kts 276°
2026-05-08 07:40 47.45272 8.55624 1406 ft 5 kts 276°
2026-05-08 07:40 47.45314 8.55553 1410 ft 12 kts 332°
2026-05-08 07:41 47.45384 8.55503 1413 ft 11 kts 335°
2026-05-08 07:41 47.45456 8.55453 1412 ft 11 kts 335°
2026-05-08 07:41 47.45517 8.55461 1404 ft 8 kts 53°
2026-05-08 07:41 47.45525 8.55514 1407 ft 3 kts 91°
2026-05-08 07:42 47.45520 8.55590 1407 ft 12 kts 95°
2026-05-08 07:42 47.45511 8.55720 1407 ft 12 kts 96°
2026-05-08 07:42 47.45502 8.55839 1415 ft 11 kts 96°
2026-05-08 07:42 47.45493 8.55961 1410 ft 16 kts 96°
2026-05-08 07:43 47.45482 8.56121 1407 ft 15 kts 95°
2026-05-08 07:43 47.45501 8.56254 1414 ft 12 kts 50°
2026-05-08 07:43 47.45541 8.56327 1414 ft 7 kts 50°
2026-05-08 07:43 47.45589 8.56418 1421 ft 13 kts 62°
2026-05-08 07:44 47.45591 8.56535 1419 ft 10 kts 96°
2026-05-08 07:44 47.45583 8.56646 1417 ft 11 kts 96°
2026-05-08 07:44 47.45573 8.56782 1422 ft 13 kts 96°
2026-05-08 07:44 47.45564 8.56903 1420 ft 11 kts 96°
2026-05-08 07:45 47.45576 8.56999 1422 ft 8 kts 47°
2026-05-08 07:45 47.45623 8.57021 1425 ft 10 kts
2026-05-08 07:45 47.45665 8.56991 1424 ft 6 kts 286°
2026-05-08 07:45 47.45670 8.56913 1423 ft 13 kts 276°
2026-05-08 07:46 47.45702 8.56451 1416 ft 82 kts 276°
2026-05-08 07:46 47.45782 8.55294 1399 ft 142 kts 276°
2026-05-08 07:46 47.45922 8.53642 1567 ft 169 kts 278°
2026-05-08 07:46 47.46029 8.51989 2365 ft 160 kts 275°
2026-05-08 07:47 47.46134 8.50328 2981 ft 165 kts 275°
2026-05-08 07:47 47.46234 8.48613 3555 ft 169 kts 270°
2026-05-08 07:47 47.45863 8.46954 3928 ft 174 kts 226°
2026-05-08 07:47 47.44892 8.45873 4341 ft 177 kts 213°
2026-05-08 07:48 47.43994 8.44626 4718 ft 183 kts 233°
2026-05-08 07:48 47.43217 8.43061 4991 ft 195 kts 233°
2026-05-08 07:48 47.42389 8.41408 5300 ft 205 kts 233°
2026-05-08 07:48 47.41514 8.39672 5593 ft 217 kts 233°
2026-05-08 07:49 47.40562 8.37780 5725 ft 242 kts 233°
2026-05-08 07:49 47.39528 8.35703 6146 ft 258 kts 233°
2026-05-08 07:49 47.38514 8.33507 6804 ft 262 kts 237°
2026-05-08 07:49 47.37564 8.31171 7452 ft 268 kts 241°
2026-05-08 07:50 47.36704 8.28733 8205 ft 269 kts 243°
2026-05-08 07:50 47.35868 8.26244 8897 ft 272 kts 243°
2026-05-08 07:50 47.35024 8.23735 9636 ft 274 kts 243°
2026-05-08 07:50 47.34164 8.21222 10309 ft 276 kts 243°
2026-05-08 07:51 47.33279 8.18671 10807 ft 287 kts 242°
2026-05-08 07:51 47.32328 8.15970 10939 ft 308 kts 242°
2026-05-08 07:51 47.31302 8.13074 11084 ft 328 kts 242°
2026-05-08 07:51 47.30214 8.10008 11536 ft 337 kts 242°
2026-05-08 07:52 47.29115 8.06921 12090 ft 342 kts 242°
2026-05-08 07:52 47.28003 8.03797 12699 ft 347 kts 242°
2026-05-08 07:52 47.26885 8.00627 13302 ft 351 kts 244°
2026-05-08 07:52 47.25938 7.97294 13892 ft 355 kts 247°
2026-05-08 07:53 47.24997 7.93910 14452 ft 358 kts 247°
2026-05-08 07:53 47.24048 7.90511 15004 ft 361 kts 247°
2026-05-08 07:53 47.23087 7.87079 15588 ft 363 kts 247°
2026-05-08 07:53 47.22110 7.83598 16160 ft 366 kts 246°
2026-05-08 07:54 47.21144 7.80165 16713 ft 368 kts 246°
2026-05-08 07:54 47.20156 7.76658 17131 ft 375 kts 246°
2026-05-08 07:54 47.19075 7.73147 17582 ft 379 kts 240°
2026-05-08 07:54 47.17609 7.69916 18084 ft 381 kts 231°
2026-05-08 07:55 47.15954 7.66862 18564 ft 383 kts 231°
2026-05-08 07:55 47.14286 7.63788 19020 ft 385 kts 231°
2026-05-08 07:55 47.12615 7.60709 19469 ft 387 kts 231°
2026-05-08 07:55 47.10928 7.57602 19912 ft 390 kts 231°
2026-05-08 07:56 47.09235 7.54480 20364 ft 392 kts 231°
2026-05-08 07:56 47.07539 7.51349 20812 ft 394 kts 231°
2026-05-08 07:56 47.05830 7.48198 21242 ft 396 kts 231°
2026-05-08 07:56 47.04134 7.45071 21681 ft 398 kts 231°
2026-05-08 07:57 47.02410 7.41893 22124 ft 400 kts 231°
2026-05-08 07:57 47.00650 7.38656 22576 ft 402 kts 231°
2026-05-08 07:57 46.98901 7.35452 23020 ft 404 kts 231°
2026-05-08 07:57 46.97142 7.32241 23455 ft 406 kts 231°
2026-05-08 07:58 46.95369 7.29012 23841 ft 407 kts 231°
2026-05-08 07:58 46.93595 7.25776 24209 ft 409 kts 231°
2026-05-08 07:58 46.91817 7.22526 24602 ft 409 kts 231°
2026-05-08 07:58 46.90615 7.20331 24872 ft 409 kts 231°
2026-05-08 07:59 46.88833 7.17089 25286 ft 409 kts 231°
2026-05-08 07:59 46.87046 7.13844 25689 ft 410 kts 231°
2026-05-08 07:59 46.85260 7.10605 26083 ft 410 kts 231°
2026-05-08 07:59 46.83467 7.07362 26474 ft 410 kts 231°
2026-05-08 08:00 46.81675 7.04122 26852 ft 411 kts 231°
2026-05-08 08:00 46.79880 7.00880 27218 ft 411 kts 231°
2026-05-08 08:00 46.78083 6.97628 27579 ft 411 kts 231°
2026-05-08 08:00 46.76288 6.94387 27927 ft 412 kts 231°
2026-05-08 08:01 46.74486 6.91136 28275 ft 413 kts 231°
2026-05-08 08:01 46.72678 6.87873 28629 ft 413 kts 231°
2026-05-08 08:01 46.70868 6.84615 28977 ft 414 kts 231°
2026-05-08 08:01 46.69031 6.81312 29339 ft 413 kts 231°
2026-05-08 08:02 46.67226 6.78071 29810 ft 410 kts 231°
2026-05-08 08:02 46.65500 6.74795 30257 ft 407 kts 236°
2026-05-08 08:02 46.64021 6.71287 30591 ft 406 kts 238°
2026-05-08 08:02 46.62565 6.67770 30885 ft 407 kts 238°
2026-05-08 08:03 46.61118 6.64293 31159 ft 407 kts 238°
2026-05-08 08:03 46.59646 6.60770 31435 ft 408 kts 238°
2026-05-08 08:03 46.58166 6.57241 31714 ft 409 kts 238°
2026-05-08 08:03 46.56681 6.53708 31992 ft 410 kts 238°
2026-05-08 08:04 46.55196 6.50173 32267 ft 411 kts 238°
2026-05-08 08:04 46.53706 6.46624 32543 ft 411 kts 238°
2026-05-08 08:04 46.52212 6.43065 32737 ft 414 kts 238°
2026-05-08 08:04 46.50706 6.39475 32886 ft 418 kts 238°
2026-05-08 08:05 46.49188 6.35867 33093 ft 420 kts 238°
2026-05-08 08:05 46.47660 6.32247 33356 ft 421 kts 238°
2026-05-08 08:05 46.46130 6.28625 33642 ft 421 kts 238°
2026-05-08 08:05 46.44596 6.25001 33909 ft 422 kts 238°
2026-05-08 08:06 46.43059 6.21372 34152 ft 422 kts 238°
2026-05-08 08:06 46.41524 6.17746 34378 ft 422 kts 238°
2026-05-08 08:06 46.39986 6.14122 34614 ft 422 kts 238°
2026-05-08 08:06 46.38449 6.10504 34873 ft 421 kts 238°
2026-05-08 08:07 46.36911 6.06892 35040 ft 421 kts 238°
2026-05-08 08:07 46.33847 5.99708 35086 ft 420 kts 238°
2026-05-08 08:08 46.30766 5.92505 35076 ft 421 kts 238°
2026-05-08 08:08 46.27651 5.85256 35072 ft 421 kts 238°
2026-05-08 08:09 46.24555 5.78065 35065 ft 422 kts 238°
2026-05-08 08:09 46.21461 5.70878 35046 ft 421 kts 238°
2026-05-08 08:10 46.18360 5.63701 35051 ft 421 kts 238°
2026-05-08 08:10 46.15249 5.56536 35049 ft 421 kts 238°
2026-05-08 08:11 46.12077 5.49535 35040 ft 422 kts 236°
2026-05-08 08:11 46.08707 5.42609 35041 ft 423 kts 235°
2026-05-08 08:12 46.05310 5.35694 35045 ft 423 kts 235°
2026-05-08 08:12 46.01944 5.28750 35045 ft 423 kts 236°
2026-05-08 08:13 45.98595 5.21791 35054 ft 423 kts 236°
2026-05-08 08:13 45.95220 5.14797 35059 ft 423 kts 235°
2026-05-08 08:14 45.91850 5.07858 35057 ft 423 kts 236°
2026-05-08 08:14 45.88470 5.00926 35054 ft 424 kts 236°
2026-05-08 08:15 45.85090 4.93992 35043 ft 424 kts 236°
2026-05-08 08:15 45.81700 4.87055 35054 ft 424 kts 236°
2026-05-08 08:16 45.78308 4.80132 35058 ft 424 kts 236°
2026-05-08 08:16 45.74910 4.73217 35059 ft 424 kts 236°
2026-05-08 08:17 45.71503 4.66309 35045 ft 425 kts 236°
2026-05-08 08:17 45.68089 4.59403 35036 ft 426 kts 236°
2026-05-08 08:18 45.64669 4.52487 35042 ft 426 kts 237°
2026-05-08 08:18 45.61247 4.45575 35052 ft 426 kts 236°
2026-05-08 08:19 45.57817 4.38669 35058 ft 426 kts 236°
2026-05-08 08:19 45.54374 4.31775 35062 ft 427 kts 236°
2026-05-08 08:20 45.50925 4.24887 35056 ft 427 kts 237°
2026-05-08 08:20 45.47475 4.18000 35050 ft 427 kts 237°
2026-05-08 08:21 45.44017 4.11127 35051 ft 427 kts 237°
2026-05-08 08:21 45.40557 4.04257 35050 ft 427 kts 237°
2026-05-08 08:22 45.37075 3.97348 35045 ft 427 kts 237°
2026-05-08 08:22 45.33604 3.90501 35048 ft 427 kts 237°
2026-05-08 08:23 45.30125 3.83655 35037 ft 427 kts 238°
2026-05-08 08:23 45.26646 3.76831 35051 ft 427 kts 238°
2026-05-08 08:24 45.23193 3.69990 35036 ft 426 kts 238°
2026-05-08 08:24 45.19822 3.63091 35039 ft 426 kts 239°
2026-05-08 08:25 45.16485 3.56240 35034 ft 426 kts 239°
2026-05-08 08:25 45.13093 3.49366 35016 ft 426 kts 239°
2026-05-08 08:26 45.09689 3.42520 35023 ft 425 kts 238°
2026-05-08 08:26 45.06282 3.35681 35033 ft 425 kts 238°
2026-05-08 08:27 45.02878 3.28862 35039 ft 424 kts 238°
2026-05-08 08:27 44.99470 3.22052 35041 ft 424 kts 238°
2026-05-08 08:28 44.96044 3.15204 35043 ft 424 kts 238°
2026-05-08 08:28 44.92640 3.08408 35034 ft 423 kts 239°
2026-05-08 08:29 44.89237 3.01628 35035 ft 423 kts 239°
2026-05-08 08:29 44.85823 2.94868 35038 ft 423 kts 239°
2026-05-08 08:30 44.82485 2.88068 35031 ft 421 kts 241°
2026-05-08 08:30 44.78293 2.78823 35035 ft 420 kts 242°
2026-05-08 08:31 44.75157 2.71887 35035 ft 421 kts 242°
2026-05-08 08:31 44.71971 2.64985 35027 ft 421 kts 242°
2026-05-08 08:32 44.68766 2.58109 35030 ft 420 kts 242°
2026-05-08 08:32 44.65564 2.51237 35028 ft 420 kts 242°
2026-05-08 08:33 44.62339 2.44331 35032 ft 420 kts 242°
2026-05-08 08:33 44.59138 2.37475 35035 ft 420 kts 242°
2026-05-08 08:34 44.55927 2.30638 35031 ft 419 kts 242°
2026-05-08 08:34 44.52727 2.23832 35035 ft 417 kts 242°
2026-05-08 08:35 44.49538 2.17046 35035 ft 416 kts 242°
2026-05-08 08:35 44.46348 2.10289 35032 ft 416 kts 242°
2026-05-08 08:36 44.43160 2.03544 35024 ft 415 kts 242°
2026-05-08 08:36 44.39971 1.96813 34988 ft 415 kts 241°
2026-05-08 08:37 44.36779 1.90105 34998 ft 414 kts 241°
2026-05-08 08:37 44.33594 1.83422 35014 ft 413 kts 241°
2026-05-08 08:38 44.30413 1.76769 35015 ft 412 kts 241°
2026-05-08 08:38 44.27267 1.70096 34997 ft 411 kts 242°
2026-05-08 08:39 44.24210 1.63383 34996 ft 410 kts 242°
2026-05-08 08:39 44.21134 1.56623 34979 ft 410 kts 242°
2026-05-08 08:40 44.18059 1.49935 34977 ft 409 kts 241°
2026-05-08 08:40 44.14972 1.43272 34985 ft 409 kts 240°
2026-05-08 08:41 44.11882 1.36618 34985 ft 409 kts 240°
2026-05-08 08:41 44.08793 1.29972 34986 ft 409 kts 240°
2026-05-08 08:42 44.05701 1.23325 34988 ft 409 kts 240°
2026-05-08 08:42 44.02604 1.16692 34979 ft 409 kts 240°
2026-05-08 08:43 43.99506 1.10066 34966 ft 408 kts 239°
2026-05-08 08:43 43.96406 1.03460 34971 ft 408 kts 239°
2026-05-08 08:44 43.93313 0.96867 34975 ft 408 kts 239°
2026-05-08 08:44 43.90203 0.90268 34971 ft 408 kts 239°
2026-05-08 08:45 43.86414 0.84312 34976 ft 413 kts 225°
2026-05-08 08:45 43.82119 0.79015 34950 ft 413 kts 225°
2026-05-08 08:46 43.77890 0.73812 34966 ft 413 kts 224°
2026-05-08 08:46 43.73605 0.68520 34963 ft 412 kts 224°
2026-05-08 08:47 43.69325 0.63244 34968 ft 412 kts 224°
2026-05-08 08:47 43.65048 0.57979 34965 ft 412 kts 224°
2026-05-08 08:48 43.60754 0.52738 34954 ft 412 kts 224°
2026-05-08 08:48 43.56463 0.47509 34961 ft 411 kts 224°
2026-05-08 08:49 43.52188 0.42284 34958 ft 411 kts 224°
2026-05-08 08:49 43.47912 0.37065 34958 ft 411 kts 223°
2026-05-08 08:50 43.43632 0.31858 34953 ft 411 kts 223°
2026-05-08 08:50 43.39323 0.26642 34948 ft 410 kts 223°
2026-05-08 08:51 43.35042 0.21466 34953 ft 409 kts 223°
2026-05-08 08:51 43.30769 0.16308 34948 ft 409 kts 223°
2026-05-08 08:52 43.26500 0.11166 34953 ft 408 kts 223°
2026-05-08 08:52 43.22231 0.06028 34944 ft 408 kts 223°
2026-05-08 08:53 43.17967 0.00904 34949 ft 407 kts 223°
2026-05-08 08:53 43.13708 -0.04202 34967 ft 407 kts 222°
2026-05-08 08:54 43.09443 -0.09301 34964 ft 407 kts 222°
2026-05-08 08:54 43.05182 -0.14384 34964 ft 406 kts 222°
2026-05-08 08:55 43.00925 -0.19460 34958 ft 406 kts 221°
2026-05-08 08:55 42.96669 -0.24515 34965 ft 405 kts 221°
2026-05-08 08:56 42.92415 -0.29563 34962 ft 405 kts 221°
2026-05-08 08:56 42.88163 -0.34596 34962 ft 405 kts 221°
2026-05-08 08:57 42.83902 -0.39621 34972 ft 405 kts 221°
2026-05-08 08:57 42.79366 -0.44138 34968 ft 406 kts 208°
2026-05-08 08:58 42.74116 -0.47034 34967 ft 408 kts 203°
2026-05-08 08:58 42.68786 -0.49834 34982 ft 408 kts 203°
2026-05-08 08:59 42.63494 -0.52626 34979 ft 408 kts 203°
2026-05-08 08:59 42.58199 -0.55400 34976 ft 408 kts 203°
2026-05-08 09:00 42.52931 -0.58152 34982 ft 408 kts 203°
2026-05-08 09:00 42.47638 -0.60926 34987 ft 408 kts 203°
2026-05-08 09:01 42.42343 -0.63687 34990 ft 408 kts 203°
2026-05-08 09:01 42.37045 -0.66444 34978 ft 408 kts 203°
2026-05-08 09:02 42.31748 -0.69199 34985 ft 408 kts 203°
2026-05-08 09:02 42.27340 -0.71485 34986 ft 408 kts 203°
2026-05-08 09:03 42.22063 -0.74217 34987 ft 408 kts 203°
2026-05-08 09:03 42.16760 -0.76963 35008 ft 408 kts 202°
2026-05-08 09:04 42.11434 -0.79710 35008 ft 407 kts 202°
2026-05-08 09:04 42.06161 -0.82437 35010 ft 406 kts 202°
2026-05-08 09:05 42.00892 -0.85147 35010 ft 405 kts 202°
2026-05-08 09:05 41.95632 -0.87848 35006 ft 405 kts 202°
2026-05-08 09:06 41.90379 -0.90541 35009 ft 404 kts 202°
2026-05-08 09:06 41.85128 -0.93224 35000 ft 403 kts 202°
2026-05-08 09:07 41.79881 -0.95898 35012 ft 403 kts 202°
2026-05-08 09:07 41.74641 -0.98570 35008 ft 403 kts 202°
2026-05-08 09:08 41.69403 -1.01242 35014 ft 402 kts 202°
2026-05-08 09:08 41.64356 -1.04391 35010 ft 401 kts 214°
2026-05-08 09:09 41.59765 -1.08620 35010 ft 401 kts 214°
2026-05-08 09:09 41.55170 -1.12841 35005 ft 401 kts 214°
2026-05-08 09:10 41.50576 -1.17056 35036 ft 401 kts 213°
2026-05-08 09:10 41.45981 -1.21259 35014 ft 401 kts 213°
2026-05-08 09:11 41.41382 -1.25465 35005 ft 401 kts 213°
2026-05-08 09:11 41.36752 -1.29680 34997 ft 401 kts 213°
2026-05-08 09:12 41.32147 -1.33874 34990 ft 401 kts 213°
2026-05-08 09:12 41.27542 -1.38054 34990 ft 401 kts 213°
2026-05-08 09:13 41.22935 -1.42239 34995 ft 401 kts 213°
2026-05-08 09:13 41.18333 -1.46418 34995 ft 401 kts 213°
2026-05-08 09:14 41.13725 -1.50594 34996 ft 401 kts 213°
2026-05-08 09:14 41.09111 -1.54756 34996 ft 402 kts 212°
2026-05-08 09:15 41.04480 -1.58930 34981 ft 403 kts 212°
2026-05-08 09:15 40.99831 -1.63121 34979 ft 405 kts 212°
2026-05-08 09:16 40.95166 -1.67314 34984 ft 406 kts 212°
2026-05-08 09:16 40.90485 -1.71512 34986 ft 406 kts 212°
2026-05-08 09:17 40.85810 -1.75698 34990 ft 406 kts 212°